Location: Milevsko
(49.4500°N, 14.3670°E)
Time: 20:40:16
(UTC+02:00)

ISS - Pass Details

Date: 20 July 2018
Orbit: 402 x 408 km, 51.6° (Epoch: 17 July)

Event Time Altitude Azimuth Distance (km) Brightness Sun altitude
Rises 00:37:31 0° 263° (W) 2,321 0.0 -19.5°
Reaches altitude 10° 00:39:36 10° 267° (W) 1,463 -1.0 -19.5°
Maximum altitude 00:42:52 65° 350° (N) 452 -3.5 -19.6°
Drops below altitude 10° 00:46:08 10° 73° (ENE) 1,469 -0.9 -19.7°
Sets 00:48:14 0° 76° (ENE) 2,331 0.1 -19.7°
